Regional Weather Roundup
Issued by NWS

Home | Current Version | Previous Version | Graphics & Text | Print | Product List | Glossary On
Versions: 1 2 3 4 5 6 7 8 9 10 11 12 13 14 15 16 17 18 19 20 21 22 23 24 25 26 27 28 29 30 31 32 33 34 35 36 37 38 39 40 41 42 43 44 45 46 47 48 49 50
000
ASUS45 KSLC 071310
RWRUT

UTAH REGIONAL WEATHER ROUNDUP
NATIONAL WEATHER SERVICE SALT LAKE CITY UT
700 AM MDT TUE JUL 07 2015

UTZ001>011-023>025-071400-

NORTHERN UTAH

CITY           SKY/WX    TMP DP  RH WIND       PRES   REMARKS
BRIGHAM CITY   CLEAR     64  56  75 CALM      30.08S
HILL AFB       PTCLDY    64  53  66 E10       30.10R
LOGAN          MOCLDY    61  57  87 CALM      30.09S
OGDEN          PTCLDY    66  53  63 S8        30.07S
PROVO AIRPORT  PTCLDY    63  48  59 SE6       30.12R
SALT LAKE CITY MOCLDY    68  58  70 SE9       30.07R
VERNAL         PTSUNNY   61  49  64 NW5       30.14S
WENDOVER       MOCLDY    68  48  49 SW7       30.07S
HEBER CITY     MOCLDY    55  50  82 CALM      30.17S
WEST JORDAN    CLEAR     66  55  68 S8        30.10R

$$

UTZ012>022-026-027-071400-

SOUTHERN/CENTRAL UTAH

CITY           SKY/WX    TMP DP  RH WIND       PRES   REMARKS
BLANDING       CLOUDY    62  52  70 E6        30.25R
BRYCE CANYON   CLOUDY    53  50  89 N5        30.31R
CEDAR CITY     CLOUDY    59  53  80 SE7       30.19S
DELTA          CLOUDY    66  49  53 S6        30.11S
HANKSVILLE     CLOUDY    64  55  72 NW8       30.14R
MILFORD        CLOUDY    63  54  72 S10       30.13R
MOAB/CYNLANDS  PTCLDY    66  59  78 CALM      30.09R
PRICE          LGT RAIN  60  52  74 N10       30.19R
ST GEORGE      PTSUNNY   72  63  73 SW6       30.06S
KANAB          CLOUDY    63  57  82 CALM      30.22R

$$

REGIONAL REPORTS     COLORADO/ARIZONA

CITY           SKY/WX    TMP DP  RH WIND       PRES   REMARKS
CRAIG, CO      NOT AVBL
GRAND JUNCTION CLOUDY    63  56  78 CALM      30.11R
RIFLE          LGT RAIN  61  56  83 SE5       30.15R
MONTROSE       CLOUDY    63  48  58 SE6       30.18R
CORTEZ         MOCLDY    59  51  75 CALM      30.20R
PAGE, AZ       CLEAR     67  56  67 CALM      30.10R
GRAND CANYON   CLOUDY    49  46  90 CALM      30.26R
KINGMAN        PTCLDY    66  52  60 SE8       30.06R
FLAGSTAFF      CLEAR     50  48  93 CALM      30.29R

$$

REGIONAL REPORTS    NEVADA/IDAHO/WYOMING

CITY           SKY/WX    TMP DP  RH WIND       PRES   REMARKS
LAS VEGAS, NV  PTCLDY    78  59  51 S6        29.92R
ELY            CLEAR     50  41  71 SE3       30.21S
ELKO           MOCLDY    62  46  55 E5        30.14R
POCATELLO, ID  CLEAR     60  54  80 CALM      30.10S
BURLEY         PTCLDY    62  54  74 NE7       30.06S
EVANSTON, WY   PTCLDY    53  50  89 E9        30.24F
ROCK SPRINGS   FOG       54  52  93 S5        30.23S VSB 3/4
KEMMERER       MOSUNNY   50  46  87 NW3       30.27R

$$


USA.gov is the U.S. government's official web portal to all federal, state and local government web resources and services.